Darstellungsparameter: Aktuell verwendete Einstellungen:
Skalierung der Graphiken ... ?
xyx+y,   Skalierungsfaktor:      Skalierung: Modus: x, Faktor: 1
Darstellungszeitraum ... ?
Vom - - bis: - -   Zeitraum: 17.05.2010 - 18.05.2010
Min/Max/Avg-Anzeige ... ?
Zeige MMA aktuell
Zeige MMA Monat
Zeige MMA alles
Zeige --A aktuell
Zeige --A Monat
Zeige --A alles
Keine MMA-Anzeige
MMA:
Average (ber die Originaldaten)
MMA-Basis: 17.05.2010 - 18.05.2010
Quicknavigation für Darstellung... ?
Tage:      1T, 2T, 3T, 5T -1T -2T -3T -5T +1T +2T +3T +5T
Wochen: 1W, 2W, 3W -1W -2W -3W +1W +2W +3W
Monate: 1M, 3M, 6M -1M -3M -6M +1M +3M +6M
Jahre:    1J, 3J, 5J, 10J -1J -3J -5J -10J +1J +3J +5J +10J
Nutze für die Darstellung ... ?
Originaldaten oder Mittelwerte auf ...
Stundenbasis Tagesbasis Wochenbasis
Monatsbasis Jahresbasis      Datenbasis: Original-Daten
Darstellen als:
Statistik (Auto) Statistik J:M      Darstellung:
Zur Graphik,    zurück zur Übersicht aller Sensoren.
 
Tabellarische Datenbersicht: ?
 
Sensor: Nr:Datum:Temp:Abs-Feuchte:Windchill:Wind:
Aussen-T/F 1 17-05-2010 00:09:03 10.3 C 6.03 g/m*3 10.3 C 0 km/h
2 17-05-2010 00:21:03 10.4 C 5.98 g/m*3 10.4 C 0 km/h
3 17-05-2010 00:33:03 10 C 5.92 g/m*3 10 C 0 km/h
4 17-05-2010 00:45:03 10 C 5.92 g/m*3 10 C 0 km/h
5 17-05-2010 00:57:03 9.9 C 5.98 g/m*3 9.9 C 0 km/h
6 17-05-2010 01:09:03 9.8 C 5.85 g/m*3 9.8 C 0 km/h
7 17-05-2010 01:21:04 9.7 C 5.99 g/m*3 9.7 C 0 km/h
8 17-05-2010 01:33:04 9.3 C 6.02 g/m*3 9.3 C 0 km/h
9 17-05-2010 01:45:04 9 C 5.99 g/m*3 9 C 0 km/h
10 17-05-2010 01:57:04 9 C 6.08 g/m*3 9 C 0 km/h
11 17-05-2010 02:09:04 8.7 C 6.14 g/m*3 8.7 C 0 km/h
12 17-05-2010 02:21:04 8.6 C 6.1 g/m*3 8.6 C 0 km/h
13 17-05-2010 02:33:04 8.6 C 6.19 g/m*3 8.6 C 0 km/h
14 17-05-2010 02:45:04 8.5 C 6.15 g/m*3 8.5 C 0 km/h
15 17-05-2010 02:57:04 8.4 C 6.11 g/m*3 8.4 C 0 km/h
16 17-05-2010 03:09:04 8.1 C 6.07 g/m*3 8.1 C 0 km/h
17 17-05-2010 03:21:04 7.8 C 6.12 g/m*3 7.8 C 0 km/h
18 17-05-2010 03:33:04 7.6 C 6.12 g/m*3 7.6 C 0 km/h
19 17-05-2010 03:45:04 7.4 C 6.12 g/m*3 7.4 C 0 km/h
20 17-05-2010 03:57:04 7.3 C 6.16 g/m*3 7.3 C 0 km/h
21 17-05-2010 04:09:04 7.2 C 6.12 g/m*3 7.2 C 0 km/h
22 17-05-2010 04:21:04 7.1 C 6.08 g/m*3 7.1 C 0 km/h
23 17-05-2010 04:33:04 7 C 6.04 g/m*3 7 C 0 km/h
24 17-05-2010 04:45:04 6.8 C 6.12 g/m*3 6.8 C 0 km/h
25 17-05-2010 04:57:04 6.7 C 6.15 g/m*3 6.7 C 0 km/h
Sensor: Nr:Datum:Temp:Abs-Feuchte:Windchill:Wind:
Aussen-T/F 26 17-05-2010 05:09:04 6.5 C 6.15 g/m*3 6.5 C 0 km/h
27 17-05-2010 05:21:04 6.3 C 6.07 g/m*3 6.3 C 0 km/h
28 17-05-2010 05:33:04 6.2 C 6.1 g/m*3 6.2 C 0 km/h
29 17-05-2010 05:45:05 6.1 C 6.06 g/m*3 6.1 C 0 km/h
30 17-05-2010 05:57:05 6 C 6.02 g/m*3 6 C 0 km/h
31 17-05-2010 06:09:05 6 C 6.1 g/m*3 6 C 0 km/h
32 17-05-2010 06:21:05 6 C 6.02 g/m*3 6 C 0 km/h
33 17-05-2010 06:33:03 6 C 6.02 g/m*3 6 C 0 km/h
34 17-05-2010 06:45:02 5.9 C 6.06 g/m*3 5.9 C 0 km/h
35 17-05-2010 06:57:02 6.1 C 6.06 g/m*3 6.1 C 0 km/h
36 17-05-2010 07:09:01 6.3 C 6.14 g/m*3 6.3 C 0 km/h
37 17-05-2010 07:21:02 6.5 C 6.15 g/m*3 6.5 C 0 km/h
38 17-05-2010 07:33:01 7.2 C 6.2 g/m*3 7.2 C 0 km/h
39 17-05-2010 07:45:02 7.4 C 6.2 g/m*3 7.4 C 0 km/h
40 17-05-2010 07:57:02 8 C 6.2 g/m*3 8 C 0 km/h
41 17-05-2010 08:09:01 8.3 C 6.24 g/m*3 8.3 C 0 km/h
42 17-05-2010 08:21:02 8.8 C 6.35 g/m*3 8.8 C 0 km/h
43 17-05-2010 08:33:02 9.2 C 6.25 g/m*3 9.2 C 0 km/h
44 17-05-2010 08:45:02 10.1 C 6.24 g/m*3 10.1 C 0 km/h
45 17-05-2010 08:57:02 10.7 C 6.29 g/m*3 10.7 C 0 km/h
46 17-05-2010 09:09:02 11.2 C 6.28 g/m*3 11.2 C 0 km/h
47 17-05-2010 09:21:02 11.6 C 6.44 g/m*3 11.6 C 0 km/h
48 17-05-2010 09:33:02 12.2 C 6.47 g/m*3 12.2 C 0 km/h
49 17-05-2010 09:45:02 12.2 C 6.47 g/m*3 12.2 C 0 km/h
50 17-05-2010 09:57:02 12.2 C 6.47 g/m*3 12.2 C 0 km/h
Sensor: Nr:Datum:Temp:Abs-Feuchte:Windchill:Wind:
Aussen-T/F 51 17-05-2010 10:09:02 13 C 6.35 g/m*3 13 C 0 km/h
52 17-05-2010 10:21:02 13.2 C 6.2 g/m*3 13.2 C 0 km/h
53 17-05-2010 10:33:03 13.7 C 6.39 g/m*3 13.7 C 0 km/h
54 17-05-2010 10:45:02 14.1 C 6.55 g/m*3 14.1 C 0 km/h
55 17-05-2010 10:57:03 14.5 C 6.47 g/m*3 14.5 C 0 km/h
56 17-05-2010 11:09:01 14.1 C 6.55 g/m*3 14.1 C 0 km/h
57 17-05-2010 11:21:02 13.9 C 6.83 g/m*3 13.9 C 0 km/h
58 17-05-2010 11:33:02 13.5 C 6.67 g/m*3 13.5 C 0 km/h
59 17-05-2010 11:45:02 13.5 C 7.13 g/m*3 13.5 C 0 km/h
60 17-05-2010 11:57:02 13 C 7.14 g/m*3 13 C 0 km/h
61 17-05-2010 12:09:02 13.2 C 7.23 g/m*3 13.2 C 0 km/h
62 17-05-2010 12:21:02 13 C 7.48 g/m*3 13 C 0 km/h
63 17-05-2010 12:33:02 13.2 C 7.69 g/m*3 13.2 C 0 km/h
64 17-05-2010 12:45:01 14.2 C 7.45 g/m*3 14.2 C 0 km/h
65 17-05-2010 12:57:01 15.8 C 7.27 g/m*3 15.8 C 0 km/h
66 17-05-2010 13:09:02 15.4 C 6.7 g/m*3 15.4 C 0 km/h
67 17-05-2010 13:21:01 16.9 C 6.9 g/m*3 16.9 C 0 km/h
68 17-05-2010 13:33:01 18.1 C 6.49 g/m*3 18.1 C 0 km/h
69 17-05-2010 13:45:01 17.7 C 6.04 g/m*3 17.7 C 0 km/h
70 17-05-2010 13:57:01 15 C 7.05 g/m*3 15 C 0 km/h
71 17-05-2010 14:09:02 15.6 C 7.05 g/m*3 15.6 C 0 km/h
72 17-05-2010 14:21:01 15.5 C 7.4 g/m*3 15.5 C 0 km/h
73 17-05-2010 14:33:01 17.1 C 6.7 g/m*3 17.1 C 0 km/h
74 17-05-2010 14:45:01 16.5 C 6.46 g/m*3 16.5 C 0 km/h
75 17-05-2010 14:57:01 14.7 C 7.18 g/m*3 14.7 C 0 km/h
Sensor: Nr:Datum:Temp:Abs-Feuchte:Windchill:Wind:
Aussen-T/F 76 17-05-2010 15:09:02 12.6 C 8.3 g/m*3 12.6 C 0 km/h
77 17-05-2010 15:21:02 12.6 C 9.07 g/m*3 12.6 C 0 km/h
78 17-05-2010 15:33:01 12.9 C 9.58 g/m*3 12.9 C 0 km/h
79 17-05-2010 15:45:02 12.7 C 9.57 g/m*3 12.7 C 0 km/h
80 17-05-2010 15:57:02 12.5 C 9.57 g/m*3 12.5 C 0 km/h
81 17-05-2010 16:09:01 13.3 C 10.05 g/m*3 13.3 C 0 km/h
82 17-05-2010 16:21:02 13.8 C 9.89 g/m*3 13.8 C 0 km/h
83 17-05-2010 16:33:01 13.7 C 9.24 g/m*3 13.7 C 0 km/h
84 17-05-2010 16:45:02 13.1 C 8.9 g/m*3 13.1 C 0 km/h
85 17-05-2010 16:57:02 13.3 C 9.24 g/m*3 13.3 C 0 km/h
86 17-05-2010 17:09:01 13.8 C 9.29 g/m*3 13.8 C 0 km/h
87 17-05-2010 17:21:01 14.1 C 8.98 g/m*3 14.1 C 0 km/h
88 17-05-2010 17:33:01 13.9 C 8.99 g/m*3 13.9 C 0 km/h
89 17-05-2010 17:45:02 13.7 C 8.64 g/m*3 13.7 C 0 km/h
90 17-05-2010 17:57:02 13.8 C 8.7 g/m*3 13.8 C 0 km/h
91 17-05-2010 18:09:02 13.6 C 8.47 g/m*3 13.6 C 0 km/h
92 17-05-2010 18:21:02 14.4 C 8.9 g/m*3 14.4 C 0 km/h
93 17-05-2010 18:33:02 11.8 C 6.63 g/m*3 11.8 C 0 km/h
94 17-05-2010 18:45:01 10.7 C 6.88 g/m*3 10.7 C 0 km/h
95 17-05-2010 18:57:01 10 C 7.24 g/m*3 10 C 0 km/h
96 17-05-2010 19:09:02 9.8 C 7.7 g/m*3 9.8 C 0 km/h
97 17-05-2010 19:21:01 10.3 C 7.85 g/m*3 10.3 C 0 km/h
98 17-05-2010 19:33:02 10.3 C 7.95 g/m*3 10.3 C 0 km/h
99 17-05-2010 19:45:02 9.8 C 7.7 g/m*3 9.8 C 0 km/h
100 17-05-2010 19:57:02 10 C 7.8 g/m*3 10 C 0 km/h
Sensor: Nr:Datum:Temp:Abs-Feuchte:Windchill:Wind:
Aussen-T/F 101 17-05-2010 20:09:02 9.8 C 7.89 g/m*3 9.8 C 0 km/h
102 17-05-2010 20:21:01 9.5 C 7.83 g/m*3 9.5 C 0 km/h
103 17-05-2010 20:33:02 9.5 C 7.92 g/m*3 9.5 C 0 km/h
104 17-05-2010 20:45:02 9.4 C 7.87 g/m*3 9.4 C 0 km/h
105 17-05-2010 20:57:02 9.1 C 7.81 g/m*3 9.1 C 0 km/h
106 17-05-2010 21:09:02 9 C 7.76 g/m*3 9 C 0 km/h
107 17-05-2010 21:21:02 9 C 7.85 g/m*3 9 C 0 km/h
108 17-05-2010 21:33:02 9 C 7.85 g/m*3 9 C 0 km/h
109 17-05-2010 21:45:02 8.7 C 7.78 g/m*3 8.7 C 0 km/h
110 17-05-2010 21:57:02 8.7 C 7.87 g/m*3 8.7 C 0 km/h
111 17-05-2010 22:09:02 8.3 C 7.67 g/m*3 8.3 C 0 km/h
112 17-05-2010 22:21:02 8.6 C 7.82 g/m*3 8.6 C 0 km/h
113 17-05-2010 22:34:03 8.7 C 7.96 g/m*3 8.7 C 0 km/h
114 17-05-2010 22:46:03 8.5 C 7.85 g/m*3 8.5 C 0 km/h
115 17-05-2010 22:58:03 8.4 C 7.8 g/m*3 8.4 C 0 km/h
116 17-05-2010 23:10:04 8.1 C 7.57 g/m*3 8.1 C 0 km/h
117 17-05-2010 23:22:04 7.8 C 7.51 g/m*3 7.8 C 0 km/h
118 17-05-2010 23:34:04 7.8 C 7.51 g/m*3 7.8 C 0 km/h
119 17-05-2010 23:46:04 7.7 C 7.54 g/m*3 7.7 C 0 km/h
120 17-05-2010 23:58:04 7.6 C 7.49 g/m*3 7.6 C 0 km/h
121 18-05-2010 00:10:04 7.4 C 7.32 g/m*3 7.4 C 0 km/h
122 18-05-2010 00:22:04 7.1 C 7.18 g/m*3 7.1 C 0 km/h
123 18-05-2010 00:34:04 7 C 7.13 g/m*3 7 C 0 km/h
124 18-05-2010 00:46:04 7 C 7.13 g/m*3 7 C 0 km/h
125 18-05-2010 00:58:04 6.9 C 7.16 g/m*3 6.9 C 0 km/h
Sensor: Nr:Datum:Temp:Abs-Feuchte:Windchill:Wind:
Aussen-T/F 126 18-05-2010 01:10:04 6.8 C 7.11 g/m*3 6.8 C 0 km/h
127 18-05-2010 01:22:04 6.6 C 7.02 g/m*3 6.6 C 0 km/h
128 18-05-2010 01:34:04 6.4 C 6.85 g/m*3 6.4 C 0 km/h
129 18-05-2010 01:46:04 6.3 C 6.88 g/m*3 6.3 C 0 km/h
130 18-05-2010 01:58:04 6.2 C 6.84 g/m*3 6.2 C 0 km/h
131 18-05-2010 02:10:04 6.3 C 6.88 g/m*3 6.3 C 0 km/h
132 18-05-2010 02:22:04 6.2 C 6.84 g/m*3 6.2 C 0 km/h
133 18-05-2010 02:34:04 6.1 C 6.79 g/m*3 6.1 C 0 km/h
134 18-05-2010 02:46:04 6 C 6.75 g/m*3 6 C 0 km/h
135 18-05-2010 02:58:04 5.9 C 6.71 g/m*3 5.9 C 0 km/h
136 18-05-2010 03:10:04 5.8 C 6.66 g/m*3 5.8 C 0 km/h
137 18-05-2010 03:22:04 5.7 C 6.62 g/m*3 5.7 C 0 km/h
138 18-05-2010 03:34:05 5.7 C 6.69 g/m*3 5.7 C 0 km/h
139 18-05-2010 03:46:05 5.8 C 6.73 g/m*3 5.8 C 0 km/h
140 18-05-2010 03:58:05 6 C 6.75 g/m*3 6 C 0 km/h
141 18-05-2010 04:10:05 6.3 C 6.96 g/m*3 6.3 C 0 km/h
142 18-05-2010 04:22:05 6.3 C 6.96 g/m*3 6.3 C 0 km/h
143 18-05-2010 04:34:05 6.3 C 6.96 g/m*3 6.3 C 0 km/h
144 18-05-2010 04:46:05 6.2 C 6.91 g/m*3 6.2 C 0 km/h
145 18-05-2010 04:58:05 6.3 C 6.88 g/m*3 6.3 C 0 km/h
146 18-05-2010 05:10:05 6.4 C 7 g/m*3 6.4 C 0 km/h
147 18-05-2010 05:22:05 6.5 C 7.05 g/m*3 6.5 C 0 km/h
148 18-05-2010 05:34:05 6.4 C 6.93 g/m*3 6.4 C 0 km/h
149 18-05-2010 05:46:05 6.5 C 6.97 g/m*3 6.5 C 0 km/h
150 18-05-2010 05:58:05 6.7 C 7.07 g/m*3 6.7 C 0 km/h
Sensor: Nr:Datum:Temp:Abs-Feuchte:Windchill:Wind:
Aussen-T/F 151 18-05-2010 06:10:05 6.9 C 7.16 g/m*3 6.9 C 0 km/h
152 18-05-2010 06:22:05 6.9 C 7.16 g/m*3 6.9 C 0 km/h
153 18-05-2010 06:34:05 7.1 C 7.18 g/m*3 7.1 C 0 km/h
154 18-05-2010 06:46:05 7.3 C 7.27 g/m*3 7.3 C 0 km/h
155 18-05-2010 06:58:05 7.5 C 7.28 g/m*3 7.5 C 0 km/h
156 18-05-2010 07:10:04 7.9 C 7.47 g/m*3 7.9 C 0 km/h
157 18-05-2010 07:22:03 7.9 C 7.39 g/m*3 7.9 C 0 km/h
158 18-05-2010 07:34:03 8 C 7.36 g/m*3 8 C 0 km/h
159 18-05-2010 07:46:01 8.5 C 7.6 g/m*3 8.5 C 0 km/h
160 18-05-2010 07:58:01 8.7 C 7.52 g/m*3 8.7 C 0 km/h
161 18-05-2010 08:10:02 9 C 7.23 g/m*3 9 C 0 km/h
162 18-05-2010 08:22:01 8.7 C 6.66 g/m*3 8.7 C 0 km/h
163 18-05-2010 08:34:02 9 C 6.44 g/m*3 9 C 0 km/h
164 18-05-2010 08:46:02 9.3 C 6.56 g/m*3 9.3 C 0 km/h
165 18-05-2010 08:58:02 9.2 C 6.52 g/m*3 9.2 C 0 km/h
166 18-05-2010 09:10:01 9.3 C 6.47 g/m*3 9.3 C 0 km/h
167 18-05-2010 09:22:02 9.6 C 6.41 g/m*3 9.6 C 0 km/h
168 18-05-2010 09:34:01 9.9 C 6.35 g/m*3 9.9 C 0 km/h
169 18-05-2010 09:46:02 9.7 C 6.08 g/m*3 9.7 C 0 km/h
170 18-05-2010 09:58:02 10 C 6.01 g/m*3 10 C 0 km/h
171 18-05-2010 10:10:01 10.5 C 6.01 g/m*3 10.5 C 0 km/h
172 18-05-2010 10:22:01 10.5 C 6.01 g/m*3 10.5 C 0 km/h
173 18-05-2010 10:34:02 10.6 C 5.66 g/m*3 10.6 C 0 km/h
174 18-05-2010 10:46:02 11.2 C 5.57 g/m*3 11.2 C 0 km/h
175 18-05-2010 10:58:02 11.4 C 5.65 g/m*3 11.4 C 0 km/h
Sensor: Nr:Datum:Temp:Abs-Feuchte:Windchill:Wind:
Aussen-T/F 176 18-05-2010 11:10:02 12.5 C 5.61 g/m*3 12.5 C 0 km/h
177 18-05-2010 11:22:02 12.4 C 5.24 g/m*3 12.4 C 0 km/h
178 18-05-2010 11:34:02 12.1 C 5.25 g/m*3 12.1 C 0 km/h
179 18-05-2010 11:46:02 13 C 5.22 g/m*3 13 C 0 km/h
180 18-05-2010 11:58:02 13.7 C 5.21 g/m*3 13.7 C 0 km/h
181 18-05-2010 12:10:03 13.7 C 4.86 g/m*3 13.7 C 0 km/h
182 18-05-2010 12:22:02 12.7 C 5.12 g/m*3 12.7 C 0 km/h
183 18-05-2010 12:34:02 14.2 C 5.13 g/m*3 14.2 C 0 km/h
184 18-05-2010 12:46:01 14.4 C 4.82 g/m*3 14.4 C 0 km/h
185 18-05-2010 12:58:01 15.2 C 4.67 g/m*3 15.2 C 0 km/h
186 18-05-2010 13:10:02 16.8 C 5 g/m*3 16.8 C 0 km/h
187 18-05-2010 13:22:01 16.9 C 4.46 g/m*3 16.9 C 0 km/h
188 18-05-2010 13:34:01 16.5 C 4.49 g/m*3 16.5 C 0 km/h
189 18-05-2010 13:46:01 17.8 C 4.4 g/m*3 17.8 C 0 km/h
190 18-05-2010 13:58:01 15.8 C 4.04 g/m*3 15.8 C 0 km/h
191 18-05-2010 14:10:02 15.1 C 4.13 g/m*3 15.1 C 0 km/h
192 18-05-2010 14:22:01 15.8 C 4.17 g/m*3 15.8 C 0 km/h
193 18-05-2010 14:34:01 15 C 4.23 g/m*3 15 C 0 km/h
194 18-05-2010 14:46:01 15.8 C 4.31 g/m*3 15.8 C 0 km/h
195 18-05-2010 14:58:01 16.3 C 4.16 g/m*3 16.3 C 0 km/h
196 18-05-2010 15:10:02 16.4 C 4.47 g/m*3 16.4 C 0 km/h
197 18-05-2010 15:22:02 16.5 C 4.21 g/m*3 16.5 C 0 km/h
198 18-05-2010 15:34:01 16.6 C 3.96 g/m*3 16.6 C 0 km/h
199 18-05-2010 15:46:02 16 C 3.95 g/m*3 16 C 0 km/h
200 18-05-2010 15:58:02 16.9 C 4.17 g/m*3 16.9 C 0 km/h
Sensor: Nr:Datum:Temp:Abs-Feuchte:Windchill:Wind:
Aussen-T/F 201 18-05-2010 16:10:01 18.2 C 4.04 g/m*3 18.2 C 0 km/h
202 18-05-2010 16:22:02 18.2 C 3.89 g/m*3 18.2 C 0 km/h
203 18-05-2010 16:34:01 17.9 C 3.05 g/m*3 17.9 C 0 km/h
204 18-05-2010 16:46:02 17.6 C 3.3 g/m*3 17.6 C 0 km/h
205 18-05-2010 16:58:02 16.8 C 3.29 g/m*3 16.8 C 0 km/h
206 18-05-2010 17:10:02 16.6 C 3.53 g/m*3 16.6 C 0 km/h
207 18-05-2010 17:22:02 17.7 C 3.77 g/m*3 17.7 C 0 km/h
208 18-05-2010 17:34:02 17.5 C 4.03 g/m*3 17.5 C 0 km/h
209 18-05-2010 17:46:02 16.8 C 3.86 g/m*3 16.8 C 0 km/h
210 18-05-2010 17:58:02 17.2 C 3.66 g/m*3 17.2 C 0 km/h
211 18-05-2010 18:10:01 18.2 C 3.57 g/m*3 18.2 C 0 km/h
212 18-05-2010 18:22:02 18.2 C 3.73 g/m*3 18.2 C 0 km/h
213 18-05-2010 18:34:02 16.9 C 3.88 g/m*3 16.9 C 0 km/h
214 18-05-2010 18:46:02 16.2 C 4.14 g/m*3 16.2 C 0 km/h
215 18-05-2010 18:58:02 16.4 C 4.33 g/m*3 16.4 C 0 km/h
216 18-05-2010 19:10:02 15.7 C 4.42 g/m*3 15.7 C 0 km/h
217 18-05-2010 19:22:02 16.1 C 4.25 g/m*3 16.1 C 0 km/h
218 18-05-2010 19:34:03 15.3 C 4.31 g/m*3 15.3 C 0 km/h
219 18-05-2010 19:46:02 14.8 C 4.56 g/m*3 14.8 C 0 km/h
220 18-05-2010 19:58:02 14.7 C 4.66 g/m*3 14.7 C 0 km/h
221 18-05-2010 20:10:02 14.5 C 4.6 g/m*3 14.5 C 0 km/h
222 18-05-2010 20:22:01 14.4 C 4.94 g/m*3 14.4 C 0 km/h
223 18-05-2010 20:34:02 14.5 C 4.85 g/m*3 14.5 C 0 km/h
224 18-05-2010 20:46:02 14.1 C 4.85 g/m*3 14.1 C 0 km/h
225 18-05-2010 20:58:02 13.8 C 4.89 g/m*3 13.8 C 0 km/h
Sensor: Nr:Datum:Temp:Abs-Feuchte:Windchill:Wind:
Aussen-T/F 226 18-05-2010 21:10:02 13.5 C 5.03 g/m*3 13.5 C 0 km/h
227 18-05-2010 21:22:02 13.1 C 4.79 g/m*3 13.1 C 0 km/h
228 18-05-2010 21:34:02 12.6 C 4.76 g/m*3 12.6 C 0 km/h
229 18-05-2010 21:46:02 12.4 C 4.48 g/m*3 12.4 C 0 km/h
230 18-05-2010 21:58:02 12.4 C 4.37 g/m*3 12.4 C 0 km/h
231 18-05-2010 22:10:02 12 C 4.37 g/m*3 12 C 0 km/h
232 18-05-2010 22:22:02 11.7 C 4.39 g/m*3 11.7 C 0 km/h
233 18-05-2010 22:35:02 11.5 C 4.44 g/m*3 11.5 C 0 km/h
234 18-05-2010 22:47:02 11.2 C 4.66 g/m*3 11.2 C 0 km/h
235 18-05-2010 22:59:02 10.8 C 4.94 g/m*3 10.8 C 0 km/h
236 18-05-2010 23:11:02 10.5 C 5.04 g/m*3 10.5 C 0 km/h
237 18-05-2010 23:23:02 10.2 C 5.33 g/m*3 10.2 C 0 km/h
238 18-05-2010 23:35:03 9.9 C 5.51 g/m*3 9.9 C 0 km/h
239 18-05-2010 23:47:03 9.7 C 5.53 g/m*3 9.7 C 0 km/h
240 18-05-2010 23:59:03 9.6 C 5.59 g/m*3 9.6 C 0 km/h

Legende:
   Min
   Max


Maximal/Minimal-Werte vom 17.05.2010 - 18.05.2010

Sensor Min Max Avg
Temp
(Aussen-T/F)
5.7 °C
18-05-2010  03:22:04
18.2 °C
18-05-2010  16:10:01
11.01 °C
Abs-Feuchte
(Aussen-T/F)
3.05 g/m*3
18-05-2010  16:34:01
10.05 g/m*3
17-05-2010  16:09:01
6.28 g/m*3
Windchill
(Aussen-T/F)
5.7 C
18-05-2010  03:22:04
18.2 C
18-05-2010  16:10:01
10.96 C

Die Daten stammen von einer Davis Vantage Pro 2 Wetter-Station und werden unter Linux mit der Software wview2wettercgi und aufbereitet. Alle Angaben erfolgen ohne Gewähr für ihre Vollständigkeit oder Richtigkeit.
Kontakt: Rainer Krienke krienke@uni-koblenz.de . Meine Webseiten an der Uni Koblenz oder privat.
Version: $Revision: 0.78 $